GAOFEN-4

Last updated on Thu Nov 21 2024 00:02:27 GMT+0000 (Coordinated Universal Time)

1 41194U 15083A 24325.55607964 -.00000334 00000+0 00000+0 0 9993 2 41194 0.0928 76.9760 0002645 211.6218 77.3704 1.00271807 32776
UTC large
Height (km)
Speed (km/s)
/
Latitude / Longitude
Inclination (degrees)
Orbital Period (minutes)
Azimuth
Elevation
Range (km)
Doppler Factor

Next 0 passes for location: London (51.5072 / 0.1276)

Sorry there are no passes over London.